Tracking 29892 objects as of 21-Nov-2024
HD Live streaming from Space Station
objects crossing your sky now

SL-8 R/B

Track SL-8 R/B now!
10-day predictions


NORAD ID: 19325
Int'l Code: 1988-062B
Perigee: 954.2 km
Apogee: 1,003.3 km
Inclination: 82.9 °
Period: 104.5 minutes
Semi major axis: 7349 km
RCS: 6.283 m2 (large)
Launch date: July 18, 1988
Source: Commonwealth of Independent States (former USSR) (CIS)
Launch site: PLESETSK MISSILE AND SPACE COMPLEX (PKMTR)

Note: This is a ROCKET BODY
Your satellite tracking list
Your tracking list is empty




NASA's NSSDC Master Catalog

Two Line Element Set (TLE):
1 19325U 88062B   24326.07744171  .00000225  00000-0  20904-3 0  9999
2 19325  82.9498 165.6365 0033398 188.0639 328.4443 13.77820399789219
Source of the keplerian elements: AFSPC